GW5208 Weather Reports


Display with metric or nautical units.
time (UTC)temp
F
wind
direction
speed
MPH
gust
MPH
rain 1hr
in
rain 24hr
in
rain mn
in
humidity
%
barometer
mb
20260906031533 57 102 0.0 0.0 0.06 0.15 0.15 83 1019.7
20260906030038 60 257 0.0 0.0 0.01 0.10 0.10 78 1022.6
20260906024521 61 334 0.0 0.0 0.00 0.09 0.09 68 1021.2
20260906023025 62 1 0.0 0.0 0.00 0.09 0.09 67 1020.0
20260906021532 62 322 0.0 0.0 0.00 0.09 0.09 65 1019.3
20260906020043 62 66 0.0 0.0 0.00 0.09 0.09 65 1019.6
20260906014522 63 56 0.0 0.0 0.00 0.09 0.09 63 1019.7
20260906013029 64 54 0.0 0.0 0.00 0.09 0.09 62 1019.7
20260906011506 64 52 0.0 0.0 0.00 0.09 0.09 60 1019.7
20260906010010 65 65 0.0 0.0 0.00 0.09 0.09 60 1019.5
20260906004518 66 49 0.0 0.0 0.00 0.09 0.09 58 1019.5
20260906003021 66 30 0.0 0.0 0.00 0.09 0.09 55 1019.4
20260906001502 67 311 0.0 0.0 0.00 0.09 0.09 54 1019.7
20260906000008 69 28 0.0 0.0 0.00 0.09 0.09 51 1019.8
20260905234515 69 57 0.0 0.0 0.00 0.09 0.09 52 1019.6
20260905233033 69 232 0.0 0.0 0.00 0.09 0.09 51 1019.9
20260905231533 69 7 0.0 0.0 0.00 0.09 0.09 51 1019.9
20260905230008 69 310 0.0 0.0 0.00 0.09 0.09 53 1019.9
20260905224513 70 319 0.0 0.0 0.00 0.09 0.09 53 1019.9
20260905223019 70 184 0.0 0.0 0.00 0.09 0.09 51 1019.9
20260905221507 70 307 0.0 0.0 0.00 0.09 0.09 52 1020.1
20260905220003 69 357 0.0 0.0 0.00 0.09 0.09 52 1020.2
20260905214504 70 332 0.0 0.0 0.00 0.09 0.09 51 1020.3
20260905213004 70 286 0.0 0.0 0.00 0.09 0.09 49 1020.3
20260905211515 70 317 0.0 0.0 0.00 0.09 0.09 50 1020.2
20260905210005 68 290 0.0 0.0 0.00 0.09 0.09 55 1020.3
20260905204507 69 60 0.0 0.0 0.00 0.09 0.09 51 1020.4
20260905203007 69 323 0.0 0.0 0.00 0.09 0.09 53 1020.5
20260905201507 68 359 0.0 0.0 0.00 0.09 0.09 57 1020.6
20260905200012 67 167 0.0 0.0 0.00 0.09 0.09 57 1020.5
20260905194506 67 213 0.0 0.0 0.00 0.09 0.09 59 1020.5
20260905193010 65 276 0.0 0.0 0.00 0.09 0.09 63 1020.6
20260905191509 64 207 0.0 0.0 0.00 0.09 0.09 65 1020.8
20260905190010 63 167 0.0 0.0 0.00 0.09 0.09 73 1020.8
20260905184514 62 183 0.0 0.0 0.00 0.09 0.09 74 1020.9
20260905183009 60 243 0.0 0.0 0.00 0.09 0.09 80 1021.3
20260905181515 59 200 0.0 0.0 0.00 0.09 0.09 78 1021.5
20260905180011 59 200 0.0 0.0 0.00 0.09 0.09 79 1021.4
20260905174512 58 199 0.0 0.0 0.00 0.09 0.09 78 1021.5
20260905173008 58 191 0.0 0.0 0.00 0.09 0.09 82 1021.5
20260905171529 57 172 0.0 0.0 0.00 0.09 0.09 85 1021.5
20260905170016 56 160 0.0 0.0 0.00 0.09 0.09 88 1021.5
20260905164522 55 29 0.0 0.0 0.00 0.09 0.09 89 1021.1
20260905163013 54 203 0.0 0.0 0.00 0.09 0.09 90 1020.9
20260905161513 53 203 0.0 0.0 0.01 0.09 0.09 91 1021.1
20260905160025 53 203 0.0 0.0 0.01 0.09 0.09 92 1021.3
20260905154518 53 220 0.0 0.0 0.01 0.09 0.09 92 1021.2
20260905153021 52 198 0.0 0.0 0.01 0.09 0.09 92 1021.3
20260905151519 52 63 0.0 0.0 0.01 0.08 0.08 91 1021.1
20260905150016 52 63 0.0 0.0 0.02 0.08 0.08 91 1020.9
20260905144521 52 70 0.0 0.0 0.02 0.08 0.08 91 1020.6
20260905143021 52 329 0.0 0.0 0.02 0.08 0.08 91 1020.4
20260905141521 51 346 0.0 0.0 0.02 0.07 0.07 90 1020.4
20260905140024 51 329 0.0 0.0 0.04 0.06 0.06 89 1020.2
20260905134528 51 335 0.0 0.0 0.06 0.06 0.06 88 1020.5
20260905133024 51 338 0.0 0.0 0.06 0.06 0.06 87 1020.8
20260905131523 52 295 0.0 0.0 0.05 0.05 0.05 86 1021.2
20260905130014 52 256 0.0 0.0 0.02 0.02 0.02 85 1021.2
20260905124521 52 283 0.0 0.0 0.00 0.00 0.00 83 1020.8
20260905123029 53 299 0.0 0.0 0.00 0.00 0.00 83 1020.0
20260905121525 53 296 0.0 0.0 0.00 0.00 0.00 82 1019.5
20260905120030 53 254 0.0 0.0 0.00 0.00 0.00 81 1019.9
20260905114516 54 264 0.0 0.0 0.00 0.00 0.00 77 1019.8
20260905113026 55 264 0.0 0.0 0.00 0.00 0.00 72 1019.7
20260905111531 55 293 0.0 0.0 0.00 0.00 0.00 72 1019.7
20260905110028 55 274 0.0 0.0 0.00 0.00 0.00 73 1019.3
20260905104528 54 274 0.0 0.0 0.00 0.00 0.00 75 1019.4
20260905103032 54 276 0.0 0.0 0.00 0.00 0.00 77 1019.2
20260905101530 54 274 0.0 0.0 0.00 0.00 0.00 75 1018.6
20260905100035 53 268 0.0 0.0 0.00 0.00 0.00 77 1019.0
20260905094530 52 263 0.0 0.0 0.00 0.00 0.00 77 1018.9
20260905093019 52 273 0.0 0.0 0.00 0.00 0.00 76 1018.8
20260905091524 52 276 0.0 0.0 0.00 0.00 0.00 77 1018.6
20260905090035 51 255 0.0 0.0 0.00 0.00 0.00 78 1018.9
20260905084511 51 261 0.0 0.0 0.00 0.00 0.00 75 1018.3
20260905083018 52 240 0.0 0.0 0.00 0.00 0.00 73 1018.3
20260905081523 53 269 0.0 0.0 0.00 0.00 0.00 70 1017.7
20260905080011 54 75 0.0 0.0 0.00 0.00 0.00 70 1017.5
20260905074508 54 1 0.0 0.0 0.00 0.00 0.00 71 1017.1
20260905073016 55 265 0.0 0.0 0.00 0.00 0.00 68 1018.7
20260905071523 54 285 0.0 0.0 0.00 0.00 0.00 68 1018.7
20260905070034 54 281 0.0 0.0 0.00 0.00 0.00 68 1018.4
20260905064508 54 294 0.0 0.0 0.00 0.00 0.00 67 1018.2
20260905063012 55 276 0.0 0.0 0.00 0.00 0.00 67 1018.2
20260905061518 55 340 0.0 0.0 0.00 0.00 0.00 63 1018.2
20260905060023 56 339 0.0 0.0 0.00 0.00 0.00 62 1018.2
20260905054533 56 270 0.0 0.0 0.00 0.00 0.00 61 1018.2
20260905053013 56 317 0.0 0.0 0.00 0.00 0.00 61 1018.2
20260905051517 57 1 0.0 0.0 0.00 0.00 0.00 60 1017.9
20260905050024 57 321 0.0 0.0 0.00 0.00 0.00 59 1017.3
20260905044535 57 280 0.0 0.0 0.00 0.00 0.00 60 1017.7
20260905043031 59 266 0.0 0.0 0.00 0.00 0.00 63 1018.2
20260905041513 60 299 0.0 0.0 0.00 0.00 0.00 60 1018.0
20260905040022 62 314 0.0 0.0 0.00 0.00 0.00 57 1017.2
20260905034529 63 298 0.0 0.0 0.00 0.00 0.00 47 1017.7
20260905033033 63 243 0.0 0.0 0.00 0.00 0.00 46 1016.8